Regional Weather Roundup
Issued by NWS New Orleans/Baton Rouge, LA

Home | Current Version | Previous Version | Text Only | Print | Product List | Glossary On
Versions: 1 2 3 4 5 6 7 8 9 10 11 12 13 14 15 16 17 18 19 20 21 22 23 24 25 26 27 28 29 30 31 32 33 34 35 36 37 38 39 40 41 42 43 44 45 46 47 48 49 50
393
ASUS44 KLIX 182310
RWRLIX
NEW ORLEANS REGIONAL WEATHER ROUNDUP
NATIONAL WEATHER SERVICE NEW ORLEANS LA
600 PM CDT FRI APR 18 2014

NOTE: "FAIR" INDICATES FEW OR NO CLOUDS BELOW 12,000 FEET WITH NO
      SIGNIFICANT WEATHER AND/OR OBSTRUCTIONS TO VISIBILITY.
      SKY/WX - SKY CONDITION AND SIGNIFICANT WEATHER.
      TMP - AIR TEMPERATURE.     DP    - DEWPOINT TEMPERATURE.
      RH  - RELATIVE HUMIDITY.   PRES  - PRESSURE.
      HI  - HEAT INDEX.          WCI   - WIND CHILL INDEX.

*  THESE STATIONS ARE NOT NWS OR FAA STATIONS AND ARE NOT UNDER
   NWS QUALITY CONTROL.

LAZ038-040-048-061>063-065>067-069-190000-
SOUTHEAST LOUISIANA

CITY           SKY/WX    TMP DP  RH WIND       PRES   REMARKS
N.O. AUDUBON   NOT AVBL
N.O. INTL ARPT PTSUNNY   70  58  65 NE15G23   30.06S
N.O. LAKEFRONT CLOUDY    68  60  75 NE17      30.09R
N.O. DOWNTOWN* CLOUDY    72  55  56 N12G17    30.08R
SLIDELL        CLOUDY    67  56  67 NE10      30.08R
BATON ROUGE    PTSUNNY   72  62  71 NW5       30.06S
BOOTHVILLE     CLOUDY    64  59  83 N10G20    30.05S
BELLE CHASSE   PTSUNNY   69  55  60 NE13G21   30.07R
BOGALUSA*        N/A     69  56  61 NE7       30.10S
GALLIANO*      MOCLDY    72  58  61 N13       30.06R
NEW ROADS*     CLOUDY    71  58  64 NE14      30.08R
GONZALES*        N/A     75  57  53 N5        30.05S
HAMMOND*       MOSUNNY   73  54  49 NE8       30.08S
HOUMA*         MOSUNNY   75  55  50 NE14      30.05R
PORT FOURCHON* PTCLDY    72  59  64 NE14G21   30.07R

$$

MSZ070-080>082-190000-
SOUTHERN MISSISSIPPI

CITY           SKY/WX    TMP DP  RH WIND       PRES   REMARKS
MCCOMB         MOSUNNY   72  53  51 NE9       30.08S
GULFPORT       MOSUNNY   68  56  65 N12       30.06R
BILOXI         PTSUNNY   65  57  75 N8        30.05S
PASCAGOULA     CLOUDY    63  56  78 N16G25    30.04S
STENNIS ARPT*  PTSUNNY   63  55  77 N12       30.09R

$$

COASTAL OBSERVATIONS
LAKE AND NEARSHORE STATIONS

STATION/POSITION TIME  TEMP    WIND        PRES    WAVE
                       AIR SEA DIR/SP/G            HT/PER
                 (UTC) (F)     (DEG/KT/KT) (MB)    (FT/S)
PASCAGOULA       2300   63      10/ 13/ 19 1016.4
WAVELAND YACHT   2300   62 68  340/ 12/ 15 1017.6
GRAND ISLE       2300   68 68   20/ 15/ 19 1018.0
SOUTHWEST PASS   2300   66 59   20/ 13/ 16 1017.4
NEW CANAL        2300   68 65   30/ 13/ 15 1018.7
SHELL BEACH      2300   65 63   10/ 21/ 23 1018.0

OFFSHORE STATIONS

STATION/POSITION TIME  TEMP    WIND        PRES    WAVE
                       AIR SEA DIR/SP/G            HT/PER
                 (UTC) (F)     (DEG/KT/KT) (MB)    (FT/S)
64 S DAUPHIN ISL 2242   64 71  360/ 25/ 31 1015.6

$$




USA.gov is the U.S. government's official web portal to all federal, state and local government web resources and services.